SIK0965 LIPE-LOWI

Flight info

Callsign SIK0965
Flight time N/A
Altitude 14000
Route LUMAV L12 NAXAV M726 BRENO BRENO4B
Aircraft C208/L-SDFGR/C

Departure

Time 2026-04-30 18:51
Airport Bologna Guglielmo Marconi Airport (LIPE)

Arrival

Time N/A
Airport Innsbruck Airport (LOWI)
Time Latitude Longitude Altitude Speed Heading
2026-04-30 18:37 44.53552 11.27895 102 ft 0 kts 27°
2026-04-30 18:47 44.53574 11.27898 126 ft 8 kts 328°
2026-04-30 18:47 44.53614 11.27798 125 ft 13 kts 296°
2026-04-30 18:47 44.53670 11.27771 126 ft 10 kts 26°
2026-04-30 18:48 44.53732 11.27793 125 ft 9 kts 316°
2026-04-30 18:48 44.53767 11.27702 124 ft 13 kts 296°
2026-04-30 18:48 44.53812 11.27600 125 ft 11 kts 316°
2026-04-30 18:48 44.53877 11.27571 124 ft 9 kts
2026-04-30 18:49 44.53931 11.27607 123 ft 10 kts 45°
2026-04-30 18:49 44.53958 11.27696 125 ft 8 kts 83°
2026-04-30 18:49 44.53947 11.27749 124 ft 6 kts 116°
2026-04-30 18:49 44.53920 11.27825 125 ft 16 kts 117°
2026-04-30 18:50 44.53805 11.28144 131 ft 58 kts 116°
2026-04-30 18:50 44.53570 11.28791 177 ft 85 kts 115°
2026-04-30 18:50 44.53287 11.29540 370 ft 90 kts 115°
2026-04-30 18:50 44.53010 11.30432 474 ft 104 kts 102°
2026-04-30 18:51 44.53161 11.31351 777 ft 100 kts 51°
2026-04-30 18:51 44.53768 11.31911 954 ft 112 kts 18°
2026-04-30 18:51 44.54586 11.32015 1161 ft 122 kts 354°
2026-04-30 18:51 44.55409 11.31564 1210 ft 138 kts 335°
2026-04-30 18:52 44.56285 11.30992 1375 ft 139 kts 343°
2026-04-30 18:52 44.57177 11.30575 1552 ft 132 kts 342°
2026-04-30 18:52 44.58000 11.30141 1735 ft 118 kts 341°
2026-04-30 18:52 44.58749 11.29891 1905 ft 108 kts
2026-04-30 18:53 44.59433 11.30189 2062 ft 97 kts 27°
2026-04-30 18:53 44.60043 11.30531 2180 ft 95 kts 22°
2026-04-30 18:53 44.60713 11.30811 2204 ft 105 kts 18°
2026-04-30 18:53 44.61443 11.31042 2233 ft 110 kts 13°
2026-04-30 18:54 44.62214 11.31211 2258 ft 114 kts
2026-04-30 18:54 44.63023 11.31245 2278 ft 118 kts
2026-04-30 18:54 44.63790 11.30822 2304 ft 123 kts 327°
2026-04-30 18:54 44.64499 11.30131 2334 ft 125 kts 327°
2026-04-30 18:55 44.65213 11.29429 2352 ft 126 kts 327°
2026-04-30 18:55 44.66647 11.27981 2395 ft 128 kts 327°
2026-04-30 18:55 44.67365 11.27246 2417 ft 128 kts 327°
2026-04-30 18:56 44.68807 11.25768 2449 ft 129 kts 327°
2026-04-30 18:56 44.69541 11.25021 2450 ft 131 kts 327°
2026-04-30 18:56 44.70281 11.24271 2450 ft 132 kts 327°
2026-04-30 18:57 44.71841 11.22701 2459 ft 146 kts 327°
2026-04-30 18:57 44.72689 11.21861 2462 ft 152 kts 327°
2026-04-30 18:57 44.73569 11.20992 2461 ft 157 kts 327°
2026-04-30 18:58 44.75383 11.19203 2455 ft 161 kts 327°
2026-04-30 18:58 44.76304 11.18295 2452 ft 162 kts 327°
2026-04-30 18:58 44.77227 11.17382 2449 ft 162 kts 327°
2026-04-30 18:59 44.79075 11.15546 2451 ft 163 kts 327°
2026-04-30 19:00 44.81846 11.12773 2446 ft 163 kts 327°
2026-04-30 19:00 44.82769 11.11848 2445 ft 162 kts 327°
2026-04-30 19:00 44.84526 11.10066 2436 ft 150 kts 327°
2026-04-30 19:01 44.86168 11.08343 2439 ft 145 kts 327°
2026-04-30 19:01 44.86988 11.07573 2432 ft 133 kts 333°
2026-04-30 19:02 44.88352 11.06404 2164 ft 108 kts 334°
2026-04-30 19:02 44.89571 11.05376 1749 ft 98 kts 334°
2026-04-30 19:03 44.90712 11.04419 1279 ft 94 kts 335°
2026-04-30 19:03 44.91851 11.03485 774 ft 96 kts 334°
2026-04-30 19:04 44.93047 11.02583 322 ft 93 kts 345°
2026-04-30 19:04 44.93988 11.01708 53 ft 36 kts 330°
2026-04-30 19:05 44.94032 11.01673 53 ft 0 kts 324°